Location: Churchill Northern Studies Centre
(58.7378°N, 93.8201°W)
Time: 22:31:30
(UTC-05:00)

N. Korean satellite - Pass Details

Date: 15 October 2017
Orbit: 459 x 517 km, 97.2° (Epoch: 19 October)

Event Time Altitude Azimuth Distance (km) Brightness Sun altitude
Rises 19:38:12 0° 187° (S) 2,530 10.3 -12.4°
Reaches altitude 10° 19:40:24 10° 197° (SSW) 1,647 9.4 -12.7°
Maximum altitude 19:43:38 33° 263° (W) 811 8.4 -13.1°
Drops below altitude 10° 19:46:51 10° 330° (NNW) 1,636 9.7 -13.5°
Sets 19:49:03 0° 340° (NNW) 2,512 10.5 -13.8°
